| time (UTC) | temp F | wind direction | speed knots | gust knots | rain 1hr in | rain 24hr in | rain mn in | humidity % | barometer mb |
| 20260507060823 | 88 | 225 | 0.0 | 0.0 | 0.00 | 0.00 | 0.00 | 75 | 1013.6 |
| 20260507060322 | 88 | 225 | 0.0 | 0.0 | 0.00 | 0.00 | 0.00 | 75 | 1013.2 |
| 20260507055820 | 88 | 180 | 0.0 | 0.0 | 0.00 | 0.00 | 0.00 | 75 | 1013.2 |
| 20260507055316 | 88 | 203 | 0.0 | 0.0 | 0.00 | 0.00 | 0.00 | 75 | 1013.2 |
| 20260507054428 | 88 | 225 | 0.0 | 0.0 | 0.00 | 0.00 | 0.00 | 76 | 1013.2 |
| 20260507053925 | 88 | 203 | 0.0 | 0.0 | 0.00 | 0.00 | 0.00 | 77 | 1013.2 |
| 20260507053420 | 88 | 203 | 0.0 | 0.0 | 0.00 | 0.00 | 0.00 | 77 | 1013.6 |
| 20260507052926 | 88 | 203 | 0.0 | 0.0 | 0.00 | 0.00 | 0.00 | 77 | 1013.6 |
| 20260507052411 | 88 | 203 | 0.0 | 0.0 | 0.00 | 0.00 | 0.00 | 78 | 1013.6 |
| 20260507051910 | 88 | 225 | 0.0 | 0.0 | 0.00 | 0.00 | 0.00 | 78 | 1013.9 |
| 20260506213851 | 104 | 113 | 11.3 | 11.3 | 0.00 | 0.00 | 0.00 | 55 | 1010.8 |
| 20260506213355 | 104 | 158 | 9.6 | 15.6 | 0.00 | 0.00 | 0.00 | 55 | 1010.8 |
| 20260506212846 | 104 | 90 | 15.6 | 21.7 | 0.00 | 0.00 | 0.00 | 55 | 1010.8 |
| 20260506212345 | 106 | 45 | 15.6 | 19.1 | 0.00 | 0.00 | 0.00 | 55 | 1010.8 |
| 20260506211915 | 106 | 23 | 15.6 | 15.6 | 0.00 | 0.00 | 0.00 | 55 | 1010.8 |
| 20260506204346 | 109 | 225 | 21.7 | 25.2 | 0.00 | 0.00 | 0.00 | 54 | 1011.2 |
| 20260506203848 | 115 | 225 | 25.2 | 25.2 | 0.00 | 0.00 | 0.00 | 49 | 1011.2 |
| 20260506203341 | 115 | 225 | 25.2 | 25.2 | 0.00 | 0.00 | 0.00 | 49 | 1011.2 |
| 20260506202839 | 115 | 225 | 25.2 | 25.2 | 0.00 | 0.00 | 0.00 | 49 | 1011.5 |
| 20260506202334 | 115 | 225 | 25.2 | 25.2 | 0.00 | 0.00 | 0.00 | 49 | 1011.5 |
| 20260506201834 | 115 | 225 | 25.2 | 25.2 | 0.00 | 0.00 | 0.00 | 49 | 1011.5 |
| 20260506201328 | 115 | 225 | 25.2 | 25.2 | 0.00 | 0.00 | 0.00 | 49 | 1011.5 |
| 20260506200819 | 115 | 225 | 25.2 | 25.2 | 0.00 | 0.00 | 0.00 | 49 | 1011.5 |
| 20260506200315 | 115 | 225 | 25.2 | 25.2 | 0.00 | 0.00 | 0.00 | 49 | 1011.5 |
| 20260506195814 | 115 | 225 | 25.2 | 25.2 | 0.00 | 0.00 | 0.00 | 49 | 1011.8 |
| 20260506192739 | 115 | 225 | 25.2 | 25.2 | 0.00 | 0.00 | 0.00 | 49 | 1012.5 |
| 20260506192235 | 115 | 225 | 25.2 | 25.2 | 0.00 | 0.00 | 0.00 | 49 | 1012.5 |
| 20260506191732 | 115 | 225 | 25.2 | 25.2 | 0.00 | 0.00 | 0.00 | 49 | 1012.5 |
| 20260506191227 | 115 | 225 | 25.2 | 25.2 | 0.00 | 0.00 | 0.00 | 49 | 1012.5 |
| 20260506190722 | 115 | 225 | 25.2 | 25.2 | 0.00 | 0.00 | 0.00 | 49 | 1012.5 |
| 20260506190216 | 115 | 225 | 25.2 | 25.2 | 0.00 | 0.00 | 0.00 | 49 | 1012.9 |
| 20260506185711 | 113 | 225 | 9.6 | 9.6 | 0.00 | 0.00 | 0.00 | 50 | 1012.9 |
| 20260506185210 | 113 | 248 | 9.6 | 9.6 | 0.00 | 0.00 | 0.00 | 50 | 1013.2 |
| 20260506184214 | 113 | 203 | 0.0 | 11.3 | 0.00 | 0.00 | 0.00 | 50 | 1013.6 |
| 20260506183703 | 113 | 203 | 11.3 | 11.3 | 0.00 | 0.00 | 0.00 | 50 | 1013.6 |
| 20260506182541 | 113 | 203 | 11.3 | 11.3 | 0.00 | 0.00 | 0.00 | 50 | 1013.6 |
| 20260506182029 | 111 | 180 | 9.6 | 11.3 | 0.00 | 0.00 | 0.00 | 51 | 1013.6 |
| 20260506181530 | 109 | 248 | 9.6 | 25.2 | 0.00 | 0.00 | 0.00 | 53 | 1013.6 |
| 20260506181024 | 111 | 180 | 9.6 | 11.3 | 0.00 | 0.00 | 0.00 | 51 | 1013.6 |
| 20260506180515 | 109 | 225 | 6.1 | 9.6 | 0.00 | 0.00 | 0.00 | 53 | 1013.9 |
| 20260506180012 | 111 | 90 | 9.6 | 25.2 | 0.00 | 0.00 | 0.00 | 52 | 1013.9 |
| 20260506175508 | 109 | 68 | 6.1 | 15.6 | 0.00 | 0.00 | 0.00 | 54 | 1013.9 |
| 20260506175004 | 109 | 225 | 6.1 | 21.7 | 0.00 | 0.00 | 0.00 | 54 | 1013.9 |
| 20260506174501 | 111 | 45 | 15.6 | 19.1 | 0.00 | 0.00 | 0.00 | 52 | 1014.2 |
| 20260506173956 | 111 | 113 | 9.6 | 11.3 | 0.00 | 0.00 | 0.00 | 53 | 1014.2 |
| 20260506173454 | 109 | 0 | 19.1 | 21.7 | 0.00 | 0.00 | 0.00 | 53 | 1014.2 |
| 20260506172954 | 109 | 68 | 0.0 | 9.6 | 0.00 | 0.00 | 0.00 | 52 | 1014.2 |
| 20260506172441 | 111 | 45 | 11.3 | 15.6 | 0.00 | 0.00 | 0.00 | 52 | 1014.2 |
| 20260506171942 | 111 | 113 | 6.1 | 11.3 | 0.00 | 0.00 | 0.00 | 51 | 1014.2 |
| 20260506171445 | 109 | 180 | 3.5 | 9.6 | 0.00 | 0.00 | 0.00 | 53 | 1014.2 |
| 20260506170932 | 109 | 68 | 19.1 | 19.1 | 0.00 | 0.00 | 0.00 | 53 | 1014.2 |
| 20260506165937 | 109 | 113 | 9.6 | 15.6 | 0.00 | 0.00 | 0.00 | 52 | 1014.6 |
| 20260506165426 | 109 | 68 | 11.3 | 11.3 | 0.00 | 0.00 | 0.00 | 53 | 1014.6 |
| 20260506164921 | 109 | 90 | 19.1 | 19.1 | 0.00 | 0.00 | 0.00 | 52 | 1014.6 |
| 20260506164415 | 109 | 90 | 9.6 | 15.6 | 0.00 | 0.00 | 0.00 | 53 | 1014.6 |
| 20260506163920 | 109 | 203 | 6.1 | 11.3 | 0.00 | 0.00 | 0.00 | 52 | 1014.6 |
| 20260506163413 | 109 | 225 | 6.1 | 6.1 | 0.00 | 0.00 | 0.00 | 52 | 1014.6 |
| 20260506162907 | 108 | 225 | 9.6 | 9.6 | 0.00 | 0.00 | 0.00 | 54 | 1014.6 |
| 20260506162358 | 108 | 270 | 9.6 | 11.3 | 0.00 | 0.00 | 0.00 | 54 | 1014.6 |
| 20260506161853 | 108 | 113 | 0.0 | 19.1 | 0.00 | 0.00 | 0.00 | 54 | 1014.9 |
| 20260506161350 | 108 | 113 | 9.6 | 9.6 | 0.00 | 0.00 | 0.00 | 54 | 1014.9 |
| 20260506160842 | 108 | 113 | 9.6 | 11.3 | 0.00 | 0.00 | 0.00 | 54 | 1014.9 |
| 20260506160340 | 108 | 225 | 6.1 | 9.6 | 0.00 | 0.00 | 0.00 | 55 | 1014.9 |
| 20260506155844 | 106 | 90 | 19.1 | 19.1 | 0.00 | 0.00 | 0.00 | 55 | 1014.9 |
| 20260506155336 | 104 | 0 | 6.1 | 11.3 | 0.00 | 0.00 | 0.00 | 57 | 1014.9 |
| 20260506154835 | 102 | 68 | 6.1 | 21.7 | 0.00 | 0.00 | 0.00 | 59 | 1015.2 |
| 20260506154335 | 102 | 158 | 3.5 | 6.1 | 0.00 | 0.00 | 0.00 | 59 | 1015.2 |
| 20260506153831 | 102 | 180 | 9.6 | 11.3 | 0.00 | 0.00 | 0.00 | 60 | 1014.9 |
| 20260506153325 | 100 | 293 | 9.6 | 11.3 | 0.00 | 0.00 | 0.00 | 62 | 1014.9 |
| 20260506152824 | 100 | 135 | 9.6 | 9.6 | 0.00 | 0.00 | 0.00 | 63 | 1014.9 |
| 20260506152316 | 99 | 68 | 11.3 | 11.3 | 0.00 | 0.00 | 0.00 | 63 | 1014.9 |
| 20260506151816 | 99 | 90 | 15.6 | 19.1 | 0.00 | 0.00 | 0.00 | 65 | 1014.9 |
| 20260506151326 | 99 | 158 | 9.6 | 9.6 | 0.00 | 0.00 | 0.00 | 66 | 1014.9 |
| 20260506150823 | 99 | 113 | 11.3 | 21.7 | 0.00 | 0.00 | 0.00 | 66 | 1014.9 |
| 20260506150312 | 99 | 113 | 6.1 | 21.7 | 0.00 | 0.00 | 0.00 | 67 | 1014.9 |
| 20260506145809 | 99 | 23 | 11.3 | 19.1 | 0.00 | 0.00 | 0.00 | 67 | 1015.2 |
| 20260506145308 | 99 | 23 | 3.5 | 15.6 | 0.00 | 0.00 | 0.00 | 67 | 1015.2 |
| 20260506144803 | 99 | 68 | 9.6 | 15.6 | 0.00 | 0.00 | 0.00 | 67 | 1015.2 |
| 20260506144256 | 97 | 158 | 6.1 | 19.1 | 0.00 | 0.00 | 0.00 | 70 | 1015.2 |
| 20260506143756 | 95 | 113 | 11.3 | 15.6 | 0.00 | 0.00 | 0.00 | 71 | 1015.2 |
| 20260506143254 | 93 | 135 | 9.6 | 11.3 | 0.00 | 0.00 | 0.00 | 72 | 1014.9 |
| 20260506142751 | 93 | 90 | 9.6 | 19.1 | 0.00 | 0.00 | 0.00 | 72 | 1014.9 |
| 20260506142252 | 93 | 180 | 0.0 | 19.1 | 0.00 | 0.00 | 0.00 | 75 | 1014.9 |
| 20260506141744 | 91 | 113 | 9.6 | 9.6 | 0.00 | 0.00 | 0.00 | 76 | 1014.9 |
| 20260506141241 | 91 | 90 | 25.2 | 25.2 | 0.00 | 0.00 | 0.00 | 75 | 1015.2 |
| 20260506140738 | 91 | 113 | 11.3 | 15.6 | 0.00 | 0.00 | 0.00 | 76 | 1015.2 |
| 20260506140231 | 91 | 90 | 11.3 | 15.6 | 0.00 | 0.00 | 0.00 | 76 | 1015.2 |
| 20260506135731 | 91 | 45 | 9.6 | 21.7 | 0.00 | 0.00 | 0.00 | 77 | 1015.2 |
| 20260506135228 | 90 | 68 | 11.3 | 15.6 | 0.00 | 0.00 | 0.00 | 79 | 1014.9 |
| 20260506134725 | 90 | 135 | 9.6 | 19.1 | 0.00 | 0.00 | 0.00 | 78 | 1014.9 |
| 20260506134219 | 90 | 113 | 15.6 | 15.6 | 0.00 | 0.00 | 0.00 | 79 | 1015.2 |
| 20260506133215 | 90 | 113 | 9.6 | 9.6 | 0.00 | 0.00 | 0.00 | 81 | 1015.2 |
| 20260506132721 | 88 | 135 | 11.3 | 19.1 | 0.00 | 0.00 | 0.00 | 83 | 1015.2 |
| 20260506132223 | 88 | 113 | 6.1 | 19.1 | 0.00 | 0.00 | 0.00 | 85 | 1015.2 |
| 20260506124930 | 84 | 90 | 11.3 | 11.3 | 0.00 | 0.00 | 0.00 | 93 | 1014.9 |
| 20260506124425 | 82 | 113 | 11.3 | 19.1 | 0.00 | 0.00 | 0.00 | 94 | 1014.9 |
| 20260506123918 | 82 | 113 | 6.1 | 15.6 | 0.00 | 0.00 | 0.00 | 96 | 1014.9 |
| 20260506123417 | 82 | 90 | 9.6 | 15.6 | 0.00 | 0.00 | 0.00 | 97 | 1014.9 |
| 20260506122915 | 82 | 90 | 6.1 | 15.6 | 0.00 | 0.00 | 0.00 | 99 | 1014.9 |
| 20260506122410 | 82 | 113 | 9.6 | 9.6 | 0.00 | 0.00 | 0.00 | 99 | 1014.9 |
| 20260506121358 | 81 | 68 | 0.0 | 0.0 | 0.00 | 0.00 | 0.00 | 99 | 1014.9 |
| 20260506120855 | 81 | 113 | 0.0 | 0.0 | 0.00 | 0.00 | 0.00 | 99 | 1014.9 |
| 20260506120353 | 82 | 90 | 9.6 | 11.3 | 0.00 | 0.00 | 0.00 | 99 | 1014.9 |
| 20260506115848 | 82 | 113 | 0.0 | 0.0 | 0.00 | 0.00 | 0.00 | 98 | 1014.9 |
| 20260506115350 | 82 | 135 | 0.0 | 0.0 | 0.00 | 0.00 | 0.00 | 98 | 1014.9 |
| 20260506114841 | 82 | 135 | 0.0 | 0.0 | 0.00 | 0.00 | 0.00 | 99 | 1014.6 |
| 20260506114337 | 82 | 113 | 0.0 | 0.0 | 0.00 | 0.00 | 0.00 | 98 | 1014.6 |
| 20260506112916 | 82 | 225 | 0.0 | 0.0 | 0.00 | 0.00 | 0.00 | 99 | 1014.6 |
| 20260506112409 | 81 | 203 | 0.0 | 0.0 | 0.00 | 0.00 | 0.00 | 99 | 1014.6 |
| 20260506111907 | 81 | 225 | 0.0 | 3.5 | 0.00 | 0.00 | 0.00 | 99 | 1014.6 |
| 20260506111356 | 82 | 225 | 0.0 | 0.0 | 0.00 | 0.00 | 0.00 | 99 | 1014.6 |
| 20260506110850 | 81 | 338 | 0.0 | 0.0 | 0.00 | 0.00 | 0.00 | 99 | 1014.6 |
| 20260506110343 | 82 | 203 | 0.0 | 0.0 | 0.00 | 0.00 | 0.00 | 98 | 1014.2 |
| 20260506100926 | 82 | 203 | 0.0 | 0.0 | 0.00 | 0.00 | 0.00 | 98 | 1014.2 |
| 20260506100433 | 82 | 225 | 0.0 | 0.0 | 0.00 | 0.00 | 0.00 | 97 | 1014.2 |
| 20260506085920 | 84 | 225 | 3.5 | 6.1 | 0.00 | 0.00 | 0.00 | 94 | 1013.9 |
| 20260506085419 | 84 | 113 | 9.6 | 9.6 | 0.00 | 0.00 | 0.00 | 94 | 1013.6 |
| 20260506084910 | 84 | 248 | 6.1 | 6.1 | 0.00 | 0.00 | 0.00 | 94 | 1013.6 |
| 20260506083859 | 84 | 45 | 6.1 | 9.6 | 0.00 | 0.00 | 0.00 | 93 | 1013.6 |
| 20260506083355 | 84 | 90 | 0.0 | 6.1 | 0.00 | 0.00 | 0.00 | 93 | 1013.6 |
| 20260506082853 | 84 | 135 | 0.0 | 0.0 | 0.00 | 0.00 | 0.00 | 93 | 1013.6 |
| 20260506082343 | 84 | 113 | 6.1 | 6.1 | 0.00 | 0.00 | 0.00 | 93 | 1013.6 |
| 20260506081838 | 84 | 113 | 9.6 | 11.3 | 0.00 | 0.00 | 0.00 | 94 | 1013.9 |
| 20260506081330 | 84 | 158 | 11.3 | 19.1 | 0.00 | 0.00 | 0.00 | 94 | 1013.9 |
| 20260506080825 | 84 | 68 | 6.1 | 11.3 | 0.00 | 0.00 | 0.00 | 94 | 1013.9 |
| 20260506080322 | 84 | 113 | 15.6 | 15.6 | 0.00 | 0.00 | 0.00 | 94 | 1013.9 |
| 20260506073307 | 84 | 158 | 11.3 | 11.3 | 0.00 | 0.00 | 0.00 | 94 | 1014.2 |
| 20260506072801 | 84 | 113 | 6.1 | 21.7 | 0.00 | 0.00 | 0.00 | 94 | 1014.2 |
| 20260506072257 | 84 | 90 | 9.6 | 15.6 | 0.00 | 0.00 | 0.00 | 94 | 1014.2 |
| 20260506071450 | 84 | 68 | 9.6 | 15.6 | 0.00 | 0.00 | 0.00 | 94 | 1014.2 |
| 20260506070947 | 84 | 45 | 6.1 | 9.6 | 0.00 | 0.00 | 0.00 | 95 | 1014.2 |
| 20260506070445 | 84 | 180 | 9.6 | 15.6 | 0.00 | 0.00 | 0.00 | 95 | 1014.2 |
| 20260506062401 | 84 | 225 | 0.0 | 6.1 | 0.00 | 0.00 | 0.00 | 92 | 1014.6 |
| 20260506061358 | 86 | 113 | 6.1 | 6.1 | 0.00 | 0.00 | 0.00 | 92 | 1014.6 |